• In Latvia
  • List of Countries
  • For 7 days
  • Water Temperature
  • Satellite Maps
  • Weather Map
  • Weather Widgets
  • user-avatar
    Login

    Hourly Weather Ugledar

    Today, 21 September, Friday

    Time Temperature Precipitation Wind Pressure Humidity
    00:00 +20°C° 0 mm 2 mps 748 mmHg 54%
    01:00 +20°C° 0 mm 2 mps 748 mmHg 56%
    02:00 +19°C° 0 mm 2 mps 748 mmHg 59%
    03:00 +19°C° 0 mm 2 mps 748 mmHg 60%
    04:00 +19°C° 0 mm 2 mps 748 mmHg 62%
    05:00 +18°C° 0 mm 2 mps 748 mmHg 64%
    06:00 +20°C° 0 mm 2 mps 748 mmHg 59%
    07:00 +23°C° 0 mm 2 mps 749 mmHg 55%
    08:00 +24°C° 0 mm 2 mps 749 mmHg 50%
    09:00 +26°C° 0 mm 2 mps 749 mmHg 46%
    10:00 +27°C° 0 mm 2 mps 749 mmHg 42%
    11:00 +29°C° 0 mm 3 mps 749 mmHg 38%
    12:00 +29°C° 0 mm 3 mps 749 mmHg 35%
    13:00 +30°C° 0 mm 3 mps 749 mmHg 33%
    14:00 +30°C° 0 mm 3 mps 749 mmHg 31%
    15:00 +30°C° 0 mm 2 mps 748 mmHg 33%
    16:00 +29°C° 0 mm 2 mps 748 mmHg 35%
    17:00 +28°C° 0 mm 2 mps 748 mmHg 37%
    18:00 +26°C° 0 mm 2 mps 748 mmHg 39%
    19:00 +25°C° 0 mm 2 mps 748 mmHg 42%
    20:00 +24°C° 0 mm 2 mps 748 mmHg 45%
    21:00 +23°C° 0 mm 2 mps 749 mmHg 45%
    22:00 +23°C° 0 mm 2 mps 749 mmHg 46%
    23:00 +21°C° 0 mm 2 mps 749 mmHg 47%

    Tomorrow, 22 September, Saturday

    Time Temperature Precipitation Wind Pressure Humidity
    00:00 +21°C° 0 mm 3 mps 749 mmHg 48%
    01:00 +20°C° 0 mm 3 mps 749 mmHg 49%
    02:00 +19°C° 0 mm 3 mps 749 mmHg 50%
    03:00 +19°C° 0 mm 3 mps 749 mmHg 52%
    04:00 +18°C° 0 mm 3 mps 749 mmHg 55%
    05:00 +18°C° 0 mm 3 mps 749 mmHg 57%
    06:00 +19°C° 0 mm 3 mps 749 mmHg 54%
    07:00 +21°C° 0 mm 3 mps 749 mmHg 51%
    08:00 +22°C° 0 mm 3 mps 749 mmHg 48%
    09:00 +25°C° 0 mm 3 mps 749 mmHg 43%
    10:00 +26°C° 0 mm 3 mps 749 mmHg 38%
    11:00 +28°C° 0 mm 3 mps 748 mmHg 34%
    12:00 +28°C° 0 mm 3 mps 748 mmHg 32%
    13:00 +29°C° 0 mm 3 mps 748 mmHg 30%
    14:00 +29°C° 0 mm 3 mps 747 mmHg 28%
    15:00 +28°C° 0 mm 2 mps 747 mmHg 31%
    16:00 +27°C° 0 mm 2 mps 747 mmHg 33%
    17:00 +27°C° 0 mm 2 mps 746 mmHg 36%
    18:00 +25°C° 0 mm 2 mps 746 mmHg 38%
    19:00 +24°C° 0 mm 2 mps 747 mmHg 41%
    20:00 +23°C° 0 mm 2 mps 747 mmHg 43%
    21:00 +21°C° 0 mm 2 mps 746 mmHg 45%
    22:00 +22°C° 0 mm 1 mps 746 mmHg 46%
    23:00 +21°C° 0 mm 1 mps 746 mmHg 47%

    Day after tomorrow, 23 September, Sunday

    Time Temperature Precipitation Wind Pressure Humidity
    00:00 +20°C° 0 mm 2 mps 746 mmHg 49%
    01:00 +19°C° 0 mm 2 mps 745 mmHg 51%
    02:00 +19°C° 0 mm 2 mps 745 mmHg 53%
    03:00 +19°C° 0 mm 2 mps 745 mmHg 55%
    04:00 +18°C° 0 mm 2 mps 745 mmHg 58%
    05:00 +18°C° 0 mm 2 mps 744 mmHg 60%
    06:00 +19°C° 0 mm 2 mps 744 mmHg 56%
    07:00 +21°C° 0 mm 2 mps 744 mmHg 51%
    08:00 +22°C° 0 mm 3 mps 744 mmHg 47%
    09:00 +23°C° 0 mm 4 mps 744 mmHg 44%
    10:00 +25°C° 0 mm 5 mps 744 mmHg 42%
    11:00 +26°C° 0 mm 6 mps 744 mmHg 39%
    12:00 +22°C° 0.4 mm 6 mps 744 mmHg 50%
    13:00 +19°C° 0.4 mm 6 mps 744 mmHg 60%
    14:00 +16°C° 0.4 mm 7 mps 744 mmHg 71%
    15:00 +15°C° 0.4 mm 7 mps 744 mmHg 69%
    16:00 +14°C° 0.4 mm 7 mps 745 mmHg 67%
    17:00 +12°C° 0.4 mm 7 mps 745 mmHg 65%
    18:00 +11°C° 0 mm 6 mps 746 mmHg 65%
    19:00 +12°C° 0 mm 5 mps 746 mmHg 66%
    20:00 +12°C° 0 mm 4 mps 747 mmHg 66%
    21:00 +12°C° 0 mm 4 mps 747 mmHg 67%
    22:00 +12°C° 0 mm 4 mps 747 mmHg 68%
    23:00 +11°C° 0 mm 4 mps 748 mmHg 69%

    24 September, Monday

    Time Temperature Precipitation Wind Pressure Humidity
    00:00 +11°C° 0 mm 4 mps 748 mmHg 71%
    01:00 +11°C° 0 mm 4 mps 748 mmHg 73%
    02:00 +10°C° 0 mm 3 mps 748 mmHg 75%
    03:00 +10°C° 0 mm 3 mps 748 mmHg 77%
    04:00 +10°C° 0 mm 3 mps 748 mmHg 79%
    05:00 +9°C° 0 mm 3 mps 748 mmHg 81%
    06:00 +11°C° 0 mm 3 mps 748 mmHg 73%
    07:00 +12°C° 0 mm 3 mps 749 mmHg 66%
    08:00 +14°C° 0 mm 3 mps 749 mmHg 59%
    09:00 +16°C° 0 mm 3 mps 749 mmHg 51%
    10:00 +17°C° 0 mm 4 mps 749 mmHg 44%
    11:00 +19°C° 0 mm 4 mps 748 mmHg 37%
    12:00 +19°C° 0 mm 4 mps 748 mmHg 34%
    13:00 +20°C° 0 mm 4 mps 747 mmHg 31%
    14:00 +21°C° 0 mm 4 mps 747 mmHg 28%
    15:00 +20°C° 0 mm 4 mps 747 mmHg 31%
    16:00 +19°C° 0 mm 3 mps 746 mmHg 34%
    17:00 +18°C° 0 mm 3 mps 746 mmHg 37%
    18:00 +17°C° 0 mm 3 mps 745 mmHg 42%
    19:00 +15°C° 0 mm 4 mps 745 mmHg 47%
    20:00 +14°C° 0 mm 4 mps 745 mmHg 52%
    21:00 +14°C° 0 mm 5 mps 744 mmHg 53%
    22:00 +14°C° 0 mm 5 mps 744 mmHg 55%
    23:00 +14°C° 0 mm 5 mps 743 mmHg 56%

    25 September, Tuesday

    Time Temperature Precipitation Wind Pressure Humidity
    00:00 +14°C° 0 mm 5 mps 743 mmHg 59%
    01:00 +14°C° 0 mm 5 mps 742 mmHg 63%
    02:00 +14°C° 0 mm 6 mps 742 mmHg 66%
    03:00 +15°C° 0 mm 6 mps 742 mmHg 67%
    04:00 +15°C° 0 mm 6 mps 741 mmHg 67%
    05:00 +15°C° 0 mm 6 mps 741 mmHg 67%
    06:00 +14°C° 0.9 mm 6 mps 741 mmHg 71%
    07:00 +14°C° 0.9 mm 7 mps 741 mmHg 75%
    08:00 +12°C° 0.9 mm 7 mps 741 mmHg 78%
    09:00 +13°C° 1.5 mm 6 mps 741 mmHg 77%
    10:00 +11°C° 1.5 mm 6 mps 741 mmHg 75%
    11:00 +12°C° 1.5 mm 5 mps 741 mmHg 73%
    12:00 +11°C° 0.3 mm 6 mps 741 mmHg 67%
    13:00 +13°C° 0.3 mm 6 mps 742 mmHg 61%
    14:00 +14°C° 0.3 mm 7 mps 742 mmHg 55%
    15:00 +14°C° 0 mm 6 mps 742 mmHg 54%
    16:00 +14°C° 0 mm 6 mps 742 mmHg 52%
    17:00 +13°C° 0 mm 6 mps 743 mmHg 51%
    18:00 +12°C° 0 mm 5 mps 743 mmHg 54%
    19:00 +10°C° 0 mm 5 mps 743 mmHg 56%
    20:00 +9°C° 0 mm 5 mps 744 mmHg 58%
    21:00 +8°C° 0 mm 5 mps 744 mmHg 61%
    22:00 +8°C° 0 mm 6 mps 744 mmHg 63%
    23:00 +7°C° 0 mm 6 mps 745 mmHg 65%

    26 September, Wednesday

    Time Temperature Precipitation Wind Pressure Humidity
    00:00 +7°C° 0 mm 6 mps 745 mmHg 65%
    01:00 +7°C° 0 mm 5 mps 745 mmHg 65%
    02:00 +6°C° 0 mm 5 mps 746 mmHg 66%
    03:00 +6°C° 0 mm 5 mps 746 mmHg 65%
    04:00 +6°C° 0 mm 5 mps 746 mmHg 65%
    05:00 +6°C° 0 mm 5 mps 747 mmHg 64%
    06:00 +7°C° 0 mm 5 mps 747 mmHg 61%
    07:00 +8°C° 0 mm 5 mps 748 mmHg 57%
    08:00 +9°C° 0 mm 5 mps 748 mmHg 54%
    09:00 +10°C° 0 mm 5 mps 748 mmHg 49%
    10:00 +12°C° 0 mm 5 mps 748 mmHg 44%
    11:00 +13°C° 0 mm 5 mps 749 mmHg 39%
    12:00 +14°C° 0 mm 5 mps 749 mmHg 37%
    13:00 +14°C° 0 mm 5 mps 749 mmHg 35%
    14:00 +14°C° 0 mm 5 mps 749 mmHg 33%
    15:00 +14°C° 0 mm 4 mps 749 mmHg 35%
    16:00 +13°C° 0 mm 3 mps 749 mmHg 37%
    17:00 +14°C° 0 mm 2 mps 750 mmHg 39%
    18:00 +13°C° 0 mm 2 mps 750 mmHg 41%
    19:00 +12°C° 0 mm 2 mps 751 mmHg 43%
    20:00 +10°C° 0 mm 2 mps 751 mmHg 45%
    21:00 +11°C° 0 mm 1 mps 751 mmHg 46%
    22:00 +10°C° 0 mm 1 mps 751 mmHg 48%
    23:00 +10°C° 0 mm 1 mps 752 mmHg 50%
    Show more